Weather in Saburovo

Russia / Moscow Oblast     55°52′55″N   37°15′50″E
temp.,
°C
wind,
m/s
gust,
m/s
humid.,
%
clouds,
%
prec.,
mm/h
press.,
hPa
HPBL,
m
19 january, wed
wed1900:00−11nw4109480 0.0 1017291
03:00−13nw4109683 0.0 1018196
06:00−15nw3897100 0.0 1018118
09:00−17wnw259867 0.0 101856
12:00−9wsw358778 0.0 1017155
15:00−8ssw388860 0.0 1015257
18:00−10ssw4119483 0.0 1014241
21:00−9sw41296100 0.1 1012288
20 january, thu
thu2000:00−8ssw41196100 0.1 1010307
03:00−6ssw51395100 0.1 1008415
06:00−4ssw51394100 0.1 1006465
09:00−3ssw51295100 0.1 1005582
12:00−3ssw61493100 0.1 1004611
15:00−2s61593100 0.1 1002728
18:00−4s61493100 0.1 1001696
21:00−5s61495100 0.8 1000688
21 january, fri
fri2100:00−5s61395100 0.7 1000659
03:00−4s51196100 1.9 1000575
06:00−4s41094100 0.2 1000613
09:00−4sse4895100 0.3 1000516
12:00−5se4896100 0.2 1000358
15:00−5se4896100 1.2 999444
18:00−6ese4895100 0.8 999381
21:00−7ese4996100 1.1 1000308
22 january, sat
sat2200:00−7ese379697 0.6 1001274
03:00−9ese369798 0.8 1002119
06:00−14ese2610099 0.1 100580
09:00−13e399896 0.1 1007172
12:00−9ese4994100 0.1 1010326
15:00−8ese4994100 0.1 1012398
18:00−9ese4109696 0.1 1015271
21:00−11e3698100 0.1 1018134
23 january, sun
sun2300:00−14ene259994 0.1 102166
03:00−16ene24100100 0.1 102350
06:00−18ne22100100 0.0 102527
09:00−17ne249993 0.1 102856
12:00−11ne129490 0.1 1029135
15:00−9n239491 0.1 1030176
18:00−16n2310084 0.0 103334
21:00−18n2210097 0.0 103519